Weather History for Savanna, IL

Change the Weather History Date:

Sunday, January 19, 2014

  Actual Average (KCWI) Record (KCWI)
Temperature  
Mean Temperature 20 °F -  
Max Temperature 41 °F 30 °F 55 °F (2006)
Min Temperature 0 °F 11 °F -18 °F (1985)
Degree Days  
Heating Degree Days 44    
Moisture  
Dew Point 20 °F    
Average Humidity 76    
Maximum Humidity 89    
Minimum Humidity 62    
Precipitation  
Precipitation 0.00 in - - ()
Sea Level Pressure  
Sea Level Pressure 29.70 in    
Wind  
Wind Speed 7 mph (SW)    
Max Wind Speed 17 mph    
Max Gust Speed 22 mph    
Visibility 10 miles    
Events      
Averages and records for this station are not official NWS values.
T = Trace of Precipitation, MM = Missing Value Source: NWS Daily Summary

Daily Weather History Graph

Daily Weather History Graph

Search for Another Location

Airport:

Trip Planner

Search our weather history database for the weather conditions in past years. The results will help you decide how hot, cold, wet, or windy it might be!

Date:

Astronomy

Jan. 19, 2014 Rise Set
Actual Time 7:23 AM CST 4:58 PM CST
Civil Twilight 6:53 AM CST 5:29 PM CST
Nautical Twilight 6:19 AM CST 6:03 PM CST
Astronomical Twilight 5:45 AM CST 6:37 PM CST
Moon 8:41 PM CST (1/19) 8:50 AM CST (1/19)
Length of Visible Light 10h 36m
Length of Day
9h 34m
Waning Gibbous, 89% of the Moon is Illuminated
Jan 19
Waning Gibbous
Jan 23
Last Quarter
Jan 30
New
Feb 6
First Quarter
Feb 14
Full

Hourly Weather History & Observations

Time (CST) Temp. Windchill Dew Point Humidity Pressure Visibility Wind Dir Wind Speed Gust Speed Precip Events Conditions
12:15 AM -0.8 °F - -5.3 °F 81% 29.90 in 10.0 mi Calm Calm - N/A   Clear
12:35 AM 3.2 °F - 0.3 °F 88% 29.89 in 10.0 mi Calm Calm - N/A   Clear
12:55 AM 1.2 °F - -2.6 °F 84% 29.89 in 10.0 mi Calm Calm - N/A   Clear
1:15 AM 4.5 °F - 1.2 °F 86% 29.89 in 10.0 mi Calm Calm - N/A   Clear
1:35 AM 5.4 °F -1.7 °F 2.5 °F 88% 29.89 in 10.0 mi South 3.5 mph - N/A   Clear
1:55 AM 7.0 °F - 3.7 °F 87% 29.88 in 10.0 mi Calm Calm - N/A   Clear
2:15 AM 8.2 °F - 5.5 °F 89% 29.88 in 10.0 mi Calm Calm - N/A   Clear
2:35 AM 11.1 °F -1.6 °F 8.2 °F 88% 29.89 in 10.0 mi WSW 9.2 mph - N/A   Clear
2:55 AM 11.7 °F 1.1 °F 9.0 °F 89% 29.89 in 10.0 mi WSW 6.9 mph - N/A   Clear
3:15 AM 11.5 °F 0.9 °F 8.8 °F 89% 29.88 in 10.0 mi WSW 6.9 mph - N/A   Clear
3:35 AM 12.0 °F 2.7 °F 9.3 °F 89% 29.86 in 10.0 mi SW 5.8 mph - N/A   Clear
3:55 AM 12.0 °F -0.4 °F 9.1 °F 88% 29.84 in 10.0 mi SSW 9.2 mph - N/A   Clear
4:15 AM 12.2 °F -0.2 °F 9.5 °F 89% 29.84 in 10.0 mi SSW 9.2 mph - N/A   Clear
4:35 AM 13.1 °F 0.1 °F 10.4 °F 89% 29.83 in 10.0 mi SSW 10.4 mph - N/A   Clear
4:55 AM 14.4 °F 0.9 °F 11.1 °F 87% 29.83 in 10.0 mi SW 11.5 mph - N/A   Clear
5:15 AM 14.9 °F 2.3 °F 11.1 °F 85% 29.82 in 10.0 mi SW 10.4 mph - N/A   Clear
5:35 AM 15.4 °F 3.0 °F 11.5 °F 84% 29.82 in 10.0 mi SW 10.4 mph 16.1 mph N/A   Clear
5:55 AM 15.8 °F 5.1 °F 12.0 °F 85% 29.81 in 10.0 mi SW 8.1 mph - N/A   Clear
6:15 AM 16.2 °F 3.2 °F 12.2 °F 84% 29.80 in 10.0 mi SSW 11.5 mph 16.1 mph N/A   Clear
6:35 AM 16.7 °F 3.8 °F 12.7 °F 84% 29.79 in 10.0 mi SSW 11.5 mph - N/A   Clear
6:55 AM 16.7 °F 6.2 °F 12.6 °F 84% 29.78 in 10.0 mi SSW 8.1 mph - N/A   Clear
7:15 AM 16.2 °F 3.2 °F 12.2 °F 84% 29.77 in 10.0 mi SSW 11.5 mph - N/A   Clear
7:35 AM 16.7 °F 5.3 °F 12.7 °F 84% 29.76 in 10.0 mi SSW 9.2 mph - N/A   Clear
7:55 AM 17.4 °F 6.2 °F 13.3 °F 84% 29.75 in 10.0 mi SSW 9.2 mph - N/A   Clear
8:15 AM 19.0 °F 9.0 °F 14.4 °F 82% 29.75 in 10.0 mi SSW 8.1 mph - N/A   Clear
8:35 AM 20.3 °F 10.6 °F 15.1 °F 80% 29.75 in 10.0 mi SW 8.1 mph - N/A   Clear
8:55 AM 21.9 °F 11.0 °F 16.2 °F 78% 29.75 in 10.0 mi SW 10.4 mph - N/A   Clear
9:15 AM 23.2 °F 12.6 °F 17.1 °F 77% 29.74 in 10.0 mi SSW 10.4 mph - N/A   Clear
9:35 AM 24.4 °F 13.5 °F 17.8 °F 76% 29.74 in 10.0 mi SW 11.5 mph - N/A   Clear
9:55 AM 25.3 °F 14.1 °F 18.5 °F 75% 29.73 in 10.0 mi SW 12.7 mph 16.1 mph N/A   Clear
10:15 AM 26.2 °F 16.4 °F 19.2 °F 75% 29.73 in 10.0 mi SW 10.4 mph 16.1 mph N/A   Clear
10:35 AM 27.3 °F 18.4 °F 19.4 °F 72% 29.72 in 10.0 mi SW 9.2 mph - N/A   Clear
10:55 AM 27.7 °F 18.2 °F 20.1 °F 73% 29.71 in 10.0 mi SW 10.4 mph 16.1 mph N/A   Clear
11:15 AM 29.3 °F 20.2 °F 20.8 °F 71% 29.69 in 10.0 mi SW 10.4 mph 17.3 mph N/A   Clear
11:35 AM 30.6 °F 21.8 °F 21.4 °F 69% 29.68 in 10.0 mi SW 10.4 mph - N/A   Clear
11:55 AM 31.6 °F 22.6 °F 22.1 °F 68% 29.67 in 10.0 mi SW 11.5 mph 19.6 mph N/A   Clear
12:15 PM 32.0 °F 22.5 °F 23.0 °F 69% 29.66 in 10.0 mi SW 12.7 mph 21.9 mph N/A   Clear
12:35 PM 32.9 °F 22.0 °F 23.5 °F 68% 29.67 in 10.0 mi SW 17.3 mph 21.9 mph N/A   Clear
12:55 PM 33.3 °F 25.1 °F 24.3 °F 70% 29.65 in 10.0 mi SW 10.4 mph - N/A   Clear
1:15 PM 33.6 °F 26.2 °F 24.8 °F 70% 29.64 in 10.0 mi SW 9.2 mph - N/A   Clear
1:35 PM 34.3 °F 26.5 °F 24.8 °F 68% 29.62 in 10.0 mi SW 10.4 mph - N/A   Clear
1:55 PM 35.4 °F 27.8 °F 25.5 °F 67% 29.61 in 10.0 mi SW 10.4 mph - N/A   Clear
2:15 PM 35.8 °F 27.3 °F 25.7 °F 67% 29.59 in 10.0 mi SW 12.7 mph - N/A   Clear
2:35 PM 36.0 °F 29.0 °F 26.4 °F 68% 29.58 in 10.0 mi SW 9.2 mph - N/A   Clear
2:55 PM 36.9 °F 29.6 °F 26.8 °F 67% 29.56 in 10.0 mi South 10.4 mph - N/A   Clear
3:15 PM 37.6 °F 30.5 °F 27.5 °F 67% 29.57 in 10.0 mi SSW 10.4 mph - N/A   Clear
3:35 PM 39.2 °F 32.5 °F 27.5 °F 63% 29.57 in 10.0 mi SW 10.4 mph 16.1 mph N/A   Clear
3:55 PM 39.2 °F 33.6 °F 27.9 °F 64% 29.57 in 10.0 mi SW 8.1 mph - N/A   Clear
4:15 PM 39.0 °F 32.8 °F 27.7 °F 64% 29.57 in 10.0 mi SSW 9.2 mph - N/A   Clear
4:35 PM 38.3 °F 31.4 °F 28.0 °F 67% 29.57 in 10.0 mi SW 10.4 mph - N/A   Clear
4:55 PM 37.8 °F 32.5 °F 28.2 °F 68% 29.56 in 10.0 mi SW 6.9 mph - N/A   Clear
5:15 PM 36.7 °F 32.9 °F 28.0 °F 71% 29.56 in 10.0 mi SSW 4.6 mph - N/A   Clear
5:35 PM 34.3 °F 31.4 °F 27.1 °F 75% 29.57 in 10.0 mi SW 3.5 mph - N/A   Clear
5:55 PM 36.5 °F 31.0 °F 28.4 °F 72% 29.57 in 10.0 mi SW 6.9 mph - N/A   Clear
6:15 PM 37.0 °F 31.6 °F 28.8 °F 72% 29.56 in 10.0 mi SSW 6.9 mph - N/A   Clear
6:55 PM 30.9 °F 23.5 °F 26.2 °F 83% 29.55 in 10.0 mi SSW 8.1 mph - N/A   Clear
7:15 PM 38.8 °F 31.6 °F 30.0 °F 71% 29.55 in 10.0 mi SW 11.5 mph - N/A   Clear
7:35 PM 39.9 °F 32.5 °F 29.7 °F 67% 29.55 in 10.0 mi SW 12.7 mph 16.1 mph N/A   Clear
7:55 PM 41.5 °F 33.8 °F 29.7 °F 63% 29.55 in 10.0 mi WSW 15.0 mph 20.7 mph N/A   Clear
8:15 PM 41.9 °F 34.6 °F 29.8 °F 62% 29.56 in 10.0 mi WSW 13.8 mph 17.3 mph N/A   Clear
8:35 PM 41.5 °F 34.6 °F 30.0 °F 64% 29.56 in 10.0 mi West 12.7 mph 17.3 mph N/A   Clear
8:55 PM 40.5 °F 34.1 °F 30.0 °F 66% 29.57 in 10.0 mi West 10.4 mph - N/A   Clear
9:15 PM 39.4 °F 32.3 °F 30.0 °F 69% 29.58 in 10.0 mi West 11.5 mph - N/A   Clear
9:35 PM 39.6 °F 32.5 °F 30.0 °F 69% 29.58 in 10.0 mi West 11.5 mph 18.4 mph N/A   Clear
9:55 PM 39.7 °F 32.7 °F 29.8 °F 68% 29.60 in 10.0 mi WNW 11.5 mph 16.1 mph N/A   Clear
10:15 PM 39.0 °F 32.3 °F 29.7 °F 69% 29.61 in 10.0 mi West 10.4 mph 16.1 mph N/A   Clear
10:35 PM 38.3 °F 30.9 °F 29.3 °F 70% 29.62 in 10.0 mi West 11.5 mph 17.3 mph N/A   Clear
10:55 PM 37.6 °F 30.5 °F 29.3 °F 72% 29.63 in 10.0 mi WNW 10.4 mph - N/A   Clear
11:15 PM 36.9 °F 30.7 °F 29.3 °F 74% 29.65 in 10.0 mi WNW 8.1 mph - N/A   Mostly Cloudy
11:35 PM 37.4 °F 30.8 °F 29.5 °F 73% 29.65 in 10.0 mi WNW 9.2 mph - N/A   Overcast
11:55 PM 37.6 °F 29.6 °F 29.3 °F 72% 29.67 in 10.0 mi WNW 12.7 mph 18.4 mph N/A   Overcast